Wind_Speed
38 32 31 25 18 14 10 7 5 7 5 4 4 11 14 16 19 19 18 14 14 14 14 14 13 12 12 10 9 7 5 7 7 8 11 12 14 17 19 21 22 22 23 23
36 36 39 31 26 23 18 14 11 9 10 7 7 7 11 14 16 17 18 19 16 15 13 11 11 10 9 7 7 5 1 5 8 9 11 13 16 18 19 19 21 21 23 22
40 46 45 33 31 30 26 24 20 17 14 13 11 12 9 11 12 15 17 17 16 14 12 9 9 9 8 7 6 5 3 6 10 12 14 16 18 19 18 19 18 20 23 26
50 49 47 41 34 36 34 31 28 23 19 18 18 17 15 14 15 15 16 16 15 14 13 11 10 9 9 8 8 6 7 10 12 15 16 19 20 19 20 19 20 20 22 24
58 56 53 49 46 42 43 42 35 31 27 24 19 19 19 17 17 18 19 17 15 15 15 15 15 13 11 10 9 9 11 14 15 17 19 22 20 21 20 21 23 25 25 27
68 64 59 54 57 50 50 49 40 36 35 30 24 23 22 20 20 22 20 21 21 19 20 19 16 14 15 13 13 14 16 17 19 20 21 21 22 21 22 24 26 27 31 34
75 71 67 62 61 60 56 50 46 39 36 34 31 29 27 28 24 25 25 24 24 24 23 19 18 19 19 19 18 19 21 22 23 24 23 23 22 22 24 28 29 31 35 37
79 76 72 69 65 64 64 57 49 48 45 43 41 35 37 33 30 26 25 27 28 27 24 22 24 23 23 24 24 25 26 27 27 28 25 24 24 25 26 29 33 34 37 38
76 81 83 78 73 73 67 64 54 56 54 50 44 45 48 42 33 29 30 34 33 32 29 26 29 28 28 30 30 31 29 29 31 30 27 26 26 27 30 31 34 37 41 43
60 81 87 84 84 78 74 72 70 59 55 50 52 51 48 48 41 37 39 40 38 36 35 33 34 33 32 32 34 35 35 34 35 32 29 29 29 30 31 34 37 40 45 48
61 67 85 94 85 78 77 74 75 69 64 59 58 54 54 52 45 40 47 45 44 42 40 39 39 36 36 37 39 38 39 39 36 35 33 34 35 34 35 38 39 43 47 49
61 67 72 88 93 91 88 84 85 83 70 62 60 57 61 62 52 47 50 50 48 48 46 45 43 42 41 43 43 42 42 40 39 39 38 39 40 39 40 41 42 45 48 51
74 65 69 73 93 95 92 85 84 81 81 71 67 58 67 65 61 52 49 51 53 50 49 48 48 48 45 46 45 44 42 41 41 43 43 43 44 44 44 45 48 51 52 53
81 72 64 63 72 92 100 97 92 90 86 78 71 71 72 67 68 61 58 60 58 56 54 51 49 47 45 45 45 44 43 44 45 48 48 47 48 48 48 48 51 53 55 55
82 79 71 67 71 84 98 100 100 97 90 88 80 80 74 70 71 73 65 63 64 61 59 58 54 51 49 49 49 48 47 49 51 53 52 50 53 53 53 54 56 56 55 54
84 79 76 66 61 77 87 98 102 102 95 93 91 85 79 79 76 73 72 71 70 66 64 64 60 57 55 53 52 52 52 55 56 57 55 56 58 58 59 60 61 59 57 54
85 81 81 71 66 67 84 83 94 101 101 96 94 84 89 83 76 71 79 76 74 71 68 69 65 62 60 59 57 57 57 59 62 60 60 61 62 63 65 65 66 64 60 56
81 82 79 79 77 70 57 74 85 99 105 104 100 97 93 88 80 80 80 83 82 78 73 70 69 67 65 64 61 60 61 64 66 66 66 66 66 67 68 68 71 69 64 61
81 76 75 75 78 63 63 67 80 90 99 104 104 100 97 91 89 86 75 85 87 81 79 79 73 72 72 71 68 65 64 68 69 70 71 70 70 69 70 72 74 70 69 66
82 81 80 79 71 60 56 68 68 76 88 100 109 106 102 100 97 78 83 90 90 89 89 83 76 78 77 77 74 71 70 72 74 74 73 74 73 71 73 75 73 71 69 69
79 78 77 73 72 67 63 58 60 70 73 87 97 104 104 103 91 90 100 90 91 93 93 88 81 83 79 82 77 78 77 77 76 76 77 76 75 74 75 74 72 72 71 72
77 73 72 72 71 67 55 56 62 61 64 75 89 97 104 104 101 102 93 88 95 95 99 92 87 85 83 84 82 82 81 81 81 81 80 79 78 76 74 73 73 71 73 72
79 71 69 72 69 71 58 55 57 61 65 63 76 85 95 102 106 102 95 96 96 98 100 95 90 88 87 87 85 85 85 84 84 84 83 80 77 77 74 74 76 77 76 74
71 70 73 76 69 66 65 64 62 64 65 62 59 65 81 94 100 102 101 98 97 98 97 95 93 91 90 89 88 87 86 86 85 84 82 79 76 76 76 77 78 79 77 77
69 72 75 74 67 65 65 66 61 64 64 60 60 57 63 81 90 96 99 99 98 98 96 94 92 90 90 89 88 86 84 83 82 80 79 77 77 76 77 78 79 80 81 80
56 60 61 55 64 69 66 65 62 60 59 54 52 47 48 62 77 87 90 96 97 96 95 93 91 89 89 89 87 86 84 81 81 81 79 79 78 77 79 81 79 78 77 81
Wind_Direction
249 251 247 249 241 247 240 229 231 149 139 209 179 158 162 156 148 147 146 148 145 138 136 136 137 133 131 136 139 124 111 62 43 31 21 16 8 4 4 4 2 358 356 354
245 249 247 239 242 239 238 224 222 218 180 195 229 173 172 160 157 155 153 150 149 147 146 149 149 146 144 154 176 181 125 1 5 7 3 4 4 360 358 3 3 359 355 349
237 239 245 239 237 242 235 233 222 218 211 199 215 216 204 188 175 168 163 160 160 162 164 176 185 189 196 191 193 214 254 330 339 348 350 350 352 349 351 354 355 352 350 348
235 239 244 246 239 238 241 238 231 226 218 215 215 211 224 222 218 198 186 188 189 189 193 201 208 220 224 229 229 252 295 321 330 337 339 340 341 340 346 343 342 343 346 337
232 234 239 241 240 235 234 239 232 227 226 225 218 227 227 226 226 220 209 207 206 208 211 217 223 225 225 237 250 274 294 307 318 327 330 335 333 333 335 332 337 339 331 336
229 232 234 238 242 239 235 237 233 227 228 231 227 228 232 231 225 227 223 220 219 220 225 232 235 239 245 248 262 281 294 304 311 318 323 325 324 324 329 331 332 334 332 334
231 228 232 232 236 242 241 237 241 234 227 233 230 232 234 233 231 229 232 233 234 233 241 247 247 249 257 260 267 279 289 299 307 310 315 318 319 322 327 328 328 333 333 332
231 229 231 234 235 239 241 237 233 239 239 238 237 236 240 234 234 234 239 234 240 243 249 254 258 259 266 274 278 283 288 297 302 304 310 313 316 319 321 324 328 331 331 329
233 230 231 232 231 233 237 236 233 231 233 235 233 237 237 237 233 235 240 243 243 250 254 253 259 265 269 274 279 283 289 293 296 301 308 310 312 313 318 322 325 328 327 326
251 230 230 231 230 230 234 240 239 232 234 237 237 240 242 241 237 234 236 246 248 248 253 253 259 262 266 273 277 282 286 289 295 302 304 304 304 306 311 315 319 323 325 324
249 239 230 231 231 232 231 236 240 239 231 231 233 236 243 246 240 235 242 242 247 251 254 256 260 262 267 270 275 280 284 288 294 297 299 300 300 303 307 311 317 321 319 322
252 244 236 229 230 230 231 230 233 234 234 235 235 231 237 242 241 236 240 249 248 249 253 256 258 263 267 271 276 279 284 289 292 293 295 297 299 300 304 307 313 314 315 316
261 252 246 233 229 230 233 233 236 238 239 232 235 231 231 240 244 242 244 248 250 251 249 253 256 259 263 269 274 279 284 287 289 289 290 294 297 299 301 305 309 311 312 314
259 260 250 241 231 229 228 230 229 232 234 237 235 234 235 235 241 242 238 244 249 251 253 255 256 260 265 269 273 278 282 285 285 286 289 293 295 296 298 302 303 307 309 312
257 258 255 244 239 232 228 229 231 231 232 234 234 235 235 235 237 242 240 241 246 250 254 257 258 261 266 270 274 277 280 282 283 283 287 291 291 294 297 300 301 305 307 306
254 255 256 246 244 239 232 228 230 231 230 232 233 234 234 234 234 241 244 241 242 245 248 253 258 260 263 267 272 275 277 279 280 282 286 288 290 293 296 298 301 304 307 307
252 253 252 250 250 242 233 230 231 232 231 231 234 236 238 236 235 237 244 248 247 245 247 250 252 255 259 262 264 268 272 276 278 281 284 286 289 292 295 299 303 307 308 307
252 251 249 251 250 245 242 234 232 230 231 231 231 232 235 237 234 235 237 246 248 250 249 250 254 255 256 258 260 263 267 272 276 279 281 283 286 290 296 301 303 307 307 307
242 243 244 245 247 247 238 240 233 232 230 231 231 231 234 234 236 234 236 243 246 246 255 255 254 257 260 262 262 264 267 270 273 275 278 282 287 293 298 301 304 306 307 307
244 243 245 247 253 248 244 246 240 235 232 231 230 230 231 234 234 235 235 237 243 247 247 250 253 256 259 262 264 266 267 269 272 277 282 286 291 295 298 301 302 302 304 305
241 240 243 243 247 248 247 249 246 240 234 232 231 231 230 232 235 233 233 236 240 247 249 250 252 254 256 260 264 267 269 271 275 279 283 286 290 294 296 296 297 299 301 303
236 237 241 241 243 245 245 252 242 244 240 235 231 232 231 231 231 233 235 235 241 242 248 250 252 255 257 260 263 266 269 273 276 280 283 287 290 292 292 292 295 296 297 299
235 234 235 237 237 241 232 240 241 244 245 241 235 234 233 232 232 234 234 236 239 243 246 249 251 253 257 260 264 266 269 273 276 280 283 286 288 289 290 292 292 295 298 300
226 229 233 237 242 242 243 243 245 246 246 247 245 238 237 234 233 233 235 236 239 242 246 249 252 254 256 259 262 265 268 271 275 278 280 282 284 286 288 290 293 294 297 298
225 238 239 243 243 237 237 240 243 246 247 250 251 245 238 236 234 233 234 235 238 241 245 248 251 253 256 259 262 265 268 271 274 277 278 280 283 286 287 289 293 295 296 296
194 226 244 237 239 238 236 239 243 246 249 252 256 249 238 237 236 235 234 234 236 239 243 246 250 253 256 260 263 265 269 272 273 275 277 281 284 287 288 290 291 293 293 294
Height
10955 10959 10962 10964 10967 10969 10969 10969 10969 10968 10971 10973 10973 10971 10969 10968 10967 10968 10969 10972 10974 10977 10979 10980 10982 10982 10982 10983 10984 10984 10984 10984 10984 10983 10982 10981 10980 10978 10976 10974 10971 10969 10967 10964
10950 10954 10951 10958 10962 10964 10967 10967 10967 10968 10969 10971 10973 10972 10971 10969 10968 10968 10969 10971 10974 10977 10979 10981 10982 10982 10982 10983 10983 10984 10984 10984 10984 10983 10982 10981 10980 10978 10976 10973 10970 10967 10965 10963
10942 10940 10941 10952 10955 10958 10961 10964 10965 10965 10966 10968 10971 10972 10971 10970 10969 10968 10969 10971 10973 10975 10978 10980 10981 10981 10981 10982 10982 10983 10983 10983 10982 10981 10980 10979 10978 10976 10974 10972 10968 10965 10963 10960
10929 10931 10935 10942 10949 10951 10954 10956 10960 10961 10963 10964 10967 10969 10969 10970 10970 10968 10968 10970 10972 10973 10975 10977 10978 10979 10979 10980 10981 10981 10981 10981 10981 10980 10979 10977 10976 10974 10972 10968 10965 10963 10961 10957
10917 10918 10923 10932 10936 10941 10945 10945 10951 10956 10958 10960 10962 10965 10965 10966 10967 10968 10968 10968 10970 10971 10972 10974 10975 10976 10976 10977 10978 10979 10979 10979 10979 10978 10977 10975 10973 10971 10968 10965 10962 10960 10956 10953
10899 10903 10912 10920 10920 10930 10931 10935 10942 10948 10951 10955 10957 10960 10961 10963 10965 10966 10967 10967 10967 10968 10969 10970 10972 10973 10973 10974 10975 10976 10976 10976 10976 10975 10974 10972 10970 10967 10965 10962 10958 10955 10950 10946
10879 10891 10896 10903 10908 10913 10919 10928 10934 10940 10945 10951 10951 10953 10957 10957 10962 10962 10963 10964 10964 10964 10964 10967 10968 10969 10969 10970 10971 10972 10972 10972 10972 10971 10970 10968 10966 10963 10961 10957 10953 10950 10945 10940
10866 10878 10884 10889 10896 10902 10903 10913 10925 10931 10935 10938 10941 10946 10948 10950 10954 10957 10958 10958 10958 10959 10961 10963 10963 10965 10965 10965 10966 10966 10966 10967 10967 10967 10966 10964 10961 10959 10956 10952 10947 10943 10939 10935
10848 10861 10859 10871 10877 10879 10895 10896 10915 10913 10919 10924 10933 10934 10933 10940 10947 10950 10951 10950 10952 10953 10955 10958 10958 10959 10960 10960 10960 10960 10961 10961 10961 10962 10961 10958 10956 10953 10950 10945 10941 10937 10933 10929
10830 10837 10844 10850 10853 10866 10876 10886 10888 10905 10911 10919 10920 10924 10928 10930 10938 10941 10941 10941 10944 10947 10948 10950 10951 10953 10953 10953 10953 10953 10955 10956 10956 10956 10955 10952 10950 10948 10945 10940 10935 10931 10927 10922
10811 10817 10825 10825 10850 10861 10863 10872 10876 10887 10895 10903 10908 10916 10917 10919 10927 10932 10929 10932 10934 10938 10940 10942 10943 10944 10945 10946 10947 10947 10948 10948 10949 10949 10947 10945 10942 10941 10938 10931 10927 10925 10923 10918
10794 10796 10806 10820 10825 10831 10837 10848 10850 10857 10880 10893 10897 10904 10902 10903 10913 10920 10922 10922 10925 10928 10931 10934 10936 10936 10937 10938 10940 10940 10940 10940 10940 10939 10938 10936 10933 10932 10929 10924 10922 10920 10917 10911
10774 10785 10789 10798 10805 10819 10829 10841 10848 10857 10861 10876 10882 10897 10890 10893 10900 10909 10914 10915 10916 10920 10922 10924 10927 10929 10930 10930 10932 10933 10933 10932 10932 10930 10928 10927 10925 10923 10921 10917 10914 10910 10906 10902
10754 10764 10778 10788 10790 10785 10797 10811 10820 10827 10844 10860 10873 10875 10873 10881 10884 10891 10899 10901 10905 10909 10911 10914 10917 10918 10921 10922 10923 10924 10925 10925 10924 10920 10918 10917 10915 10914 10913 10911 10906 10903 10898 10892
10737 10747 10755 10766 10766 10767 10780 10792 10802 10810 10828 10832 10852 10853 10863 10868 10870 10871 10882 10889 10892 10897 10900 10901 10905 10908 10910 10913 10913 10914 10915 10915 10913 10909 10909 10909 10905 10904 10902 10900 10895 10894 10890 10882
10717 10731 10735 10746 10750 10754 10759 10771 10781 10793 10809 10818 10821 10837 10847 10848 10851 10859 10865 10870 10875 10882 10885 10886 10891 10895 10898 10901 10903 10905 10904 10901 10899 10896 10898 10897 10894 10892 10889 10888 10883 10880 10878 10871
10700 10709 10716 10731 10731 10730 10733 10763 10773 10781 10792 10802 10810 10832 10820 10832 10847 10853 10845 10850 10857 10864 10870 10872 10877 10882 10886 10889 10891 10891 10891 10888 10883 10884 10885 10884 10881 10880 10876 10875 10868 10866 10863 10860
10681 10691 10699 10707 10707 10710 10751 10739 10745 10753 10765 10779 10791 10797 10806 10817 10831 10833 10833 10830 10838 10846 10856 10861 10862 10866 10870 10872 10876 10878 10877 10874 10871 10871 10871 10871 10870 10869 10865 10861 10854 10850 10846 10844
10660 10670 10679 10684 10693 10712 10714 10718 10723 10731 10750 10760 10771 10782 10791 10801 10806 10813 10836 10824 10819 10835 10838 10840 10849 10851 10852 10854 10858 10862 10864 10861 10859 10859 10859 10859 10858 10857 10852 10846 10839 10834 10829 10827
10641 10655 10663 10670 10683 10695 10702 10692 10710 10717 10731 10734 10740 10759 10771 10777 10779 10822 10816 10808 10809 10810 10816 10828 10838 10837 10840 10839 10843 10847 10850 10848 10846 10846 10845 10844 10843 10842 10836 10831 10826 10822 10817 10812
10627 10640 10653 10658 10670 10678 10676 10690 10695 10698 10713 10719 10727 10737 10747 10754 10787 10790 10770 10798 10800 10796 10797 10810 10822 10821 10829 10823 10831 10829 10833 10833 10833 10833 10832 10832 10831 10828 10823 10818 10814 10810 10806 10800
10615 10629 10642 10645 10653 10660 10674 10669 10675 10684 10694 10697 10705 10714 10728 10741 10751 10748 10770 10785 10781 10785 10777 10793 10803 10808 10813 10812 10818 10817 10818 10818 10819 10819 10819 10818 10816 10812 10807 10803 10797 10795 10791 10787
10603 10621 10625 10628 10641 10637 10660 10658 10667 10670 10676 10684 10689 10700 10709 10719 10726 10739 10755 10759 10763 10765 10767 10778 10788 10793 10795 10799 10802 10804 10805 10805 10805 10803 10804 10803 10800 10793 10791 10787 10782 10779 10775 10770
10592 10599 10604 10610 10628 10639 10645 10650 10656 10658 10665 10669 10675 10683 10688 10698 10709 10724 10732 10741 10747 10748 10754 10763 10770 10776 10780 10782 10785 10787 10789 10790 10790 10788 10787 10786 10784 10780 10776 10772 10768 10763 10758 10753
10578 10588 10593 10600 10614 10621 10627 10637 10644 10646 10648 10656 10662 10666 10672 10680 10690 10700 10711 10721 10726 10732 10739 10747 10754 10760 10763 10765 10768 10771 10772 10773 10772 10771 10768 10768 10767 10765 10760 10756 10752 10746 10740 10736
10585 10579 10592 10586 10591 10604 10612 10620 10628 10634 10637 10644 10648 10655 10658 10663 10671 10680 10691 10700 10707 10714 10722 10730 10736 10743 10746 10749 10752 10754 10756 10755 10753 10750 10750 10750 10751 10747 10741 10739 10735 10729 10722 10718